Location: Rostock
(54.0884°N, 12.1234°E)
Time: 16:23:38
(UTC+01:00)

OTV 5 (USA 277) - Visible Passes

Search period start: 23 January 2018 00:00
Search period end: 02 February 2018 00:00
Orbit: 404 x 417 km, 43.0° (Epoch: 07 September)

Date Brightness Start Highest point End Pass type
(mag) Time Alt. Az. Time Alt. Az. Time Alt. Az.
27 Jan ? 19:08:15 10° SSW 19:09:24 12° S 19:09:24 12° S visible
28 Jan ? 18:17:39 10° SSW 18:18:56 12° S 18:20:14 10° SSE visible
29 Jan ? 17:27:26 10° S 17:28:07 10° SSE 17:28:48 10° SSE visible
29 Jan ? 19:02:55 10° SSW 19:04:31 13° S 19:04:55 13° S visible
30 Jan ? 18:12:01 10° SSW 18:13:40 13° S 18:15:18 10° SSE visible
31 Jan ? 18:58:17 10° SSW 18:59:13 11° SSW 19:00:08 10° S visible
01 Feb ? 18:06:59 10° SSW 18:08:23 12° S 18:09:46 10° SSE visible
